This demonstration page uses our WeatherBlox Daily Observations layout. Learn more.

36.19886, -115.1175

Hourly Observations for July 24, 2019

Temp ( °F °C ) Dew Point ( °F °C ) Humidity (%) Winds ( mph kmh ) Pressure ( in mb ) Visibility ( mi km ) Precip ( " mm )
12:53 am 00:53 Clear 93 33.9 51 10.6 24 24 S 6 9 29.88 1012 10 16.09344 0 0
1:53 am 01:53 Clear 91 32.8 52 11.1 26 26 E 6 9 29.91 1013 10 16.09344 0 0
2:53 am 02:53 Clear 90 32.2 52 11.1 27 27 E 5 7 29.91 1013 10 16.09344 0 0
3:53 am 03:53 Mostly Cloudy 89 31.7 53 11.7 29 29 N 6 9 29.91 1013 10 16.09344 0 0
4:53 am 04:53 Mostly Cloudy 89 31.7 52 11.1 28 28 N 5 7 29.94 1014 10 16.09344 0 0
5:53 am 05:53 Partly Cloudy 89 31.7 52 11.1 28 28 N 6 9 29.94 1014 10 16.09344 0 0
6:53 am 06:53 Mostly Sunny 91 32.8 52 11.1 26 26 Calm 29.94 1014 10 16.09344 0 0
7:53 am 07:53 Mostly Sunny 93 33.9 53 11.7 26 26 NE 6 9 29.97 1015 10 16.09344 0 0
8:53 am 08:53 Mostly Sunny N/A N/A N/A undefined N/A N/A N/A 0 0
9:28 am 09:28 Sunny 91 32.8 56 13.3 31 31 E 7 11 29.88 1012 10 16.09344 0 0
9:53 am 09:53 Sunny 91 32.8 57 13.9 32 32 SE 7 11 29.97 1015 10 16.09344 0 0
10:53 am 10:53 Mostly Cloudy 92 33.3 57 13.9 31 31 S 7 11 29.97 1015 10 16.09344 0 0
11:53 am 11:53 Mostly Sunny 93 33.9 55 12.8 28 28 S 6 9 29.97 1015 10 16.09344 0 0
12:53 pm 12:53 Sunny 94 34.4 55 12.8 27 27 VRB 3 6 29.94 1014 10 16.09344 0 0
1:53 pm 13:53 Sunny 96 35.6 55 12.8 25 25 SSW 15 24 29.94 1014 10 16.09344 0 0
2:53 pm 14:53 Sunny 97 36.1 55 12.8 24 24 SSW 10 17 29.91 1013 10 16.09344 0 0
3:53 pm 15:53 Sunny 97 36.1 55 12.8 24 24 S 5 7 29.88 1012 10 16.09344 0 0
4:53 pm 16:53 Sunny 98 36.7 54 12.2 23 23 VRB 6 9 29.85 1011 10 16.09344 0 0
5:53 pm 17:53 Sunny 97 36.1 54 12.2 24 24 S 3 6 29.85 1011 10 16.09344 0 0
6:53 pm 18:53 Sunny 97 36.1 53 11.7 23 23 SW 6 9 29.85 1011 10 16.09344 0 0
7:53 pm 19:53 Sunny 97 36.1 53 11.7 23 23 WSW 5 7 29.85 1011 10 16.09344 0 0
8:53 pm 20:53 Clear 94 34.4 58 14.4 30 30 S 7 11 29.77 1008 10 16.09344 0 0
9:53 pm 21:53 Clear 92 33.3 59 15 33 33 SSW 6 9 29.91 1013 10 16.09344 0 0
10:53 pm 22:53 Clear 91 32.8 59 15 34 34 E 3 6 29.91 1013 10 16.09344 0 0
11:53 pm 23:53 Clear 89 31.7 58 14.4 35 35 E 3 6 29.91 1013 10 16.09344 0 0

Powered by AerisWeather